ISS - Orbit

View from above orbital plane
View from above orbital plane
View from above satellite
View from above satellite

Ground track
Ground track

The orbit data is extracted from the following two-line orbital elements,

1 25544U 98067A   13138.14040509  .00029690  00000-0  52024-3 0  8305
2 25544 051.6482 257.3138 0009264 327.1857 032.1673 15.50285363830035
Epoch (UTC): 18 May 2013 03:22:11
Eccentricity: 0.0009264
inclination: 51.6482°
perigee height: 409 km
apogee height: 422 km
right ascension of ascending node: 257.3138°
argument of perigee: 327.1857°
revolutions per day: 15.50285363
mean anomaly at epoch: 32.1673°
orbit number at epoch: 83003

The dashed part of the orbit path shows where the satellite is in the earth's shadow,  

Developed and maintained by Chris Peat, Heavens-Above GmbH. Please read the updated FAQ before sending e-mail. Imprint. DLR